Retour au catalogue

CZ-2D DEB

ActifSSO
NORAD 38176·DEBRIS·🇨🇳 China

Lancé Nov 20, 2011 depuis Jiuquan Satellite Launch Center

Loading…

Prochains Passages (prochaines 24 heures)

TLE

FraisSource: Space-Track

Époque: Sep 14, 2026, 11:09 UTC

1 38176U 11068D   26257.46505537  .00001139  00000-0  28624-3 0  9997
2 38176  98.2934 259.0966 0101672 245.8470 113.2068 14.50162878774670

Suivez CZ-2D DEB en temps réel avec AllMySat

Download on the App Store